#timestamp,LO_Frequency,Hit 
1499256015.1,286046992.9,N
1499256016.0,286046992.9,N
1499256035.8,286046992.2,N
1499256055.7,286046992.4,N
1499256075.5,286046992.3,N
1499256095.3,286046992.3,N
1499256115.2,286046994.5,N
1499256135.0,286046994.8,N
1499256135.9,286046994.8,N
1499256155.7,286046992.3,N
1499256175.6,286046994.0,N
1499256195.4,286046996.0,N
1499256215.3,286046991.9,N
1499256235.1,286046994.1,N
1499256255.8,286046994.0,N
1499256275.7,286046993.8,N
1499256295.5,286046994.8,N
1499256315.4,286046992.5,N
1499256335.2,286046991.8,N
1499256355.0,286046992.1,N
1499256355.9,286046992.1,N
1499256375.8,286046994.2,N
1499256395.6,286046994.6,N
1499256415.5,286046993.1,N
1499256435.3,286046992.7,N
1499256455.1,286046992.5,N
1499256475.9,286046992.3,N
1499256495.7,286046990.2,N
1499256515.5,286046992.6,N
1499256535.4,286046990.4,N
1499256555.2,286046993.2,N
1499256575.1,286046990.9,N
1499256576.0,286046990.9,N
1499256595.8,286046993.2,N
1499256615.6,286046990.7,N
1499256635.5,286046992.6,N
1499256655.3,286046990.2,N
1499256675.2,286046990.6,N
1499256695.9,286046990.2,N
1499256715.7,286046990.2,N
1499256735.6,286046993.2,N
1499256755.4,286046993.1,N
1499256775.2,286046991.4,N
1499256795.1,286046990.5,N
1499256796.0,286046990.5,N
1499256815.8,286046993.0,N
1499256835.7,286046990.5,N
1499256855.5,286046993.2,N
1499256875.3,286046991.9,N
1499256895.2,286046992.7,N
1499256915.0,286046993.0,N
1499256915.9,286046993.0,N
1499256935.7,286046992.1,N
1499256955.6,286046994.4,N
1499256975.4,286046994.0,N
1499256995.3,286046994.1,N
1499257015.1,286046995.7,N
1499257016.0,286046995.7,N
1499257035.8,286046994.4,N
1499257055.7,286046991.9,N
1499257075.5,286046993.9,N
1499257095.3,286046993.5,N
1499257115.2,286046994.5,N
1499257135.0,286046994.5,N
1499257135.9,286046994.5,N
1499257155.8,286046994.1,N
1499257175.6,286046992.1,N
1499257195.4,286046994.4,N
1499257215.3,286046994.6,N
1499257235.1,286046994.4,N
1499257255.8,286046994.1,N
1499257275.7,286046993.7,N
1499257295.5,286046993.5,N
1499257315.4,286046994.6,N
1499257335.2,286046996.3,N
1499257355.0,286046996.0,N
1499257355.9,286046996.0,N
1499257375.8,286046995.6,N
1499257395.6,286046994.9,N
1499257415.4,286046998.0,N
1499257435.3,286046995.4,N
1499257455.1,286046997.7,N
1499257475.9,286046995.5,N
1499257495.7,286046996.4,N
1499257515.5,286046993.6,N
1499257535.4,286046993.9,N
1499257555.2,286046995.7,N
1499257575.0,286046995.4,N
1499257575.9,286046995.4,N
1499257595.8,286046995.5,N
1499257615.6,286046996.3,N
1499257635.5,286046996.4,N
1499257655.3,286046993.5,N
1499257675.1,286046994.1,N
1499257695.9,286046995.7,N
1499257715.7,286046996.4,N
1499257735.5,286046994.2,N
1499257755.4,286046993.5,N
1499257775.2,286046993.9,N
1499257795.1,286046995.2,N
1499257796.0,286046995.2,N
1499257815.8,286046996.3,N
1499257835.6,286046996.3,N
1499257855.5,286046995.0,N
1499257875.3,286046995.0,N
1499257895.1,286046995.8,N
1499257915.9,286046993.5,N
1499257935.7,286046996.1,N
1499257955.6,286046992.9,N
1499257975.4,286046994.3,N
1499257995.2,286046996.3,N
1499258015.1,286046994.5,N
1499258016.0,286046994.5,N
1499258035.8,286046994.0,N
1499258055.6,286046993.7,N
1499258075.5,286046994.6,N
1499258095.3,286046994.0,N
1499258115.2,286046996.0,N
1499258135.9,286046997.5,N
1499258155.7,286046996.6,N
1499258175.6,286046999.4,N
1499258195.4,286046999.2,N
1499258215.2,286046998.8,N
1499258235.1,286046995.1,N
1499258236.0,286046995.1,N
1499258255.8,286046995.8,N
1499258275.7,286046996.1,N
1499258295.5,286046996.2,N
1499258315.3,286046996.3,N
1499258335.2,286046993.4,N
1499258355.0,286046993.3,N
1499258355.9,286046993.3,N
1499258375.7,286046994.3,N
1499258395.6,286046993.5,N
1499258415.4,286046993.1,N
1499258435.3,286046992.9,N
1499258455.1,286046992.8,N
1499258456.0,286046992.8,N
1499258475.8,286046991.9,N
1499258495.7,286046994.4,N
1499258515.5,286046994.0,N
1499258535.3,286046994.8,N
1499258555.2,286046992.9,N
1499258575.0,286046990.3,N
1499258575.9,286046990.3,N
1499258595.8,286046988.8,Y
1499258615.6,286046998.2,N
1499258635.4,286046999.1,N
1499258655.3,286047000.8,N
1499258675.1,286046998.8,N
1499258695.8,286047000.7,N
1499258715.7,286046998.3,N
1499258735.5,286047000.7,N
1499258755.4,286046998.1,N
1499258775.2,286046998.7,N
1499258795.0,286046999.2,N
1499258795.9,286046999.2,N
1499258815.8,286046998.5,N
1499258835.6,286046998.7,N
1499258855.4,286046999.6,N
1499258875.3,286047001.1,N
1499258895.1,286046999.5,N
1499258915.9,286046997.4,N
1499258935.7,286046997.1,N
1499258955.5,286046996.8,N
1499258975.4,286046995.5,N
1499258995.2,286046998.0,N
1499259015.0,286046995.4,N
1499259015.9,286046995.4,N
1499259035.8,286046998.0,N
1499259055.6,286046997.6,N
1499259075.5,286046994.9,N
1499259095.3,286046995.7,N
1499259115.1,286046997.9,N
1499259135.9,286046995.6,N
1499259155.7,286046993.3,N
1499259175.5,286046996.4,N
1499259195.4,286046996.1,N
1499259215.2,286046995.0,N
1499259235.1,286046995.7,N
1499259236.0,286046995.7,N
1499259255.8,286046995.1,N
1499259275.6,286046995.3,N
1499259295.5,286046995.1,N
1499259315.3,286046996.2,N
1499259335.1,286046997.2,N
1499259355.9,286046999.6,N
1499259375.7,286046999.3,N
1499259395.6,286046999.3,N
1499259415.4,286046998.2,N
1499259435.2,286046998.9,N
1499259455.1,286047001.2,N
1499259456.0,286047001.2,N
1499259475.8,286046999.1,N
1499259495.6,286046997.3,N
1499259515.5,286046998.2,N
1499259535.3,286046997.2,N
1499259555.2,286046997.0,N
1499259575.9,286046998.3,N
1499259595.7,286046998.2,N
